Weather History for KASX - April, 2014

Change the Weather History Date:

Saturday, April 5, 2014

  Actual Average Record
Temperature  
Mean Temperature 28 °F -  
Max Temperature 46 °F 46 °F 81 °F (1991)
Min Temperature 12 °F 23 °F 1 °F (1975)
Degree Days  
Heating Degree Days 36    
Moisture  
Dew Point 20 °F    
Average Humidity 66    
Maximum Humidity 96    
Minimum Humidity 37    
Precipitation  
Precipitation 0.00 in - - ()
Sea Level Pressure  
Sea Level Pressure 30.04 in    
Wind  
Wind Speed 8 mph (SW)    
Max Wind Speed 16 mph    
Max Gust Speed 22 mph    
Visibility 10 miles    
Events      
Averages and records for this station are not official NWS values.
T = Trace of Precipitation, MM = Missing Value Source: NWS Daily Summary

Daily Weather History Graph

Daily Weather History Graph

Search for Another Location

Airport or City:

Trip Planner

Search our weather history database for the weather conditions in past years. The results will help you decide how hot, cold, wet, or windy it might be!

Date:

Astronomy

Apr. 05, 2014 Rise Set
Actual Time 6:35 AM CDT 7:38 PM CDT
Civil Twilight 6:04 AM CDT 8:09 PM CDT
Nautical Twilight 5:27 AM CDT 8:46 PM CDT
Astronomical Twilight 4:48 AM CDT 9:25 PM CDT
Moon 10:30 AM CDT 1:00 AM CDT
Length of Visible Light 14h 04m
Length of Day
13h 02m
Waxing Crescent, 34% of the Moon is Illuminated
Apr 5
Waxing Crescent
Apr 7
First Quarter
Apr 15
Full
Apr 22
Last Quarter
Apr 29
New

Hourly Weather History & Observations

Time (CDT) Temp. Windchill Dew Point Humidity Pressure Visibility Wind Dir Wind Speed Gust Speed Precip Events Conditions
12:53 AM 19.9 °F 11.1 °F 17.1 °F 89% 30.02 in 10.0 mi WSW 6.9 mph - N/A   Clear
1:53 AM 21.0 °F 12.4 °F 18.0 °F 88% 30.03 in 10.0 mi WSW 6.9 mph - N/A   Clear
2:53 AM 18.0 °F 11.1 °F 15.1 °F 88% 30.04 in 10.0 mi WSW 4.6 mph - N/A   Clear
3:53 AM 18.0 °F 11.1 °F 16.0 °F 92% 30.04 in 10.0 mi SW 4.6 mph - N/A   Clear
4:53 AM 17.1 °F 8.7 °F 15.1 °F 92% 30.06 in 10.0 mi SW 5.8 mph - N/A   Clear
5:53 AM 12.0 °F 2.7 °F 10.9 °F 95% 30.08 in 10.0 mi SW 5.8 mph - N/A   Clear
6:53 AM 14.0 °F 5.1 °F 12.9 °F 95% 30.10 in 10.0 mi SSW 5.8 mph - N/A   Clear
7:53 AM 19.0 °F 10.0 °F 18.0 °F 96% 30.11 in 10.0 mi SSW 6.9 mph - N/A   Clear
8:53 AM 27.0 °F - 25.0 °F 92% 30.11 in 10.0 mi Calm Calm - N/A   Clear
9:53 AM 32.0 °F 28.7 °F 21.9 °F 66% 30.11 in 10.0 mi West 3.5 mph - N/A   Clear
10:53 AM 37.9 °F 34.4 °F 23.0 °F 55% 30.11 in 10.0 mi WSW 4.6 mph - N/A   Clear
11:53 AM 41.0 °F 34.3 °F 21.9 °F 47% 30.09 in 10.0 mi SW 11.5 mph 17.3 mph N/A   Clear
12:53 PM 41.0 °F 34.3 °F 23.0 °F 49% 30.07 in 10.0 mi SW 11.5 mph - N/A   Mostly Cloudy
1:53 PM 43.0 °F 36.0 °F 21.9 °F 43% 30.06 in 10.0 mi SW 13.8 mph - N/A   Clear
2:53 PM 44.1 °F 37.7 °F 21.9 °F 42% 30.04 in 10.0 mi SW 12.7 mph - N/A   Clear
3:53 PM 45.0 °F 38.2 °F 21.9 °F 40% 30.01 in 10.0 mi SSW 15.0 mph - N/A   Clear
4:53 PM 45.0 °F 37.9 °F 19.9 °F 37% 30.01 in 10.0 mi SW 16.1 mph 21.9 mph N/A   Clear
5:53 PM 44.1 °F 36.8 °F 19.9 °F 38% 30.00 in 10.0 mi SSW 16.1 mph - N/A   Clear
6:53 PM 43.0 °F 36.0 °F 21.0 °F 42% 29.99 in 10.0 mi SSW 13.8 mph 20.7 mph N/A   Clear
7:53 PM 39.9 °F 33.9 °F 23.0 °F 51% 29.99 in 10.0 mi SSW 9.2 mph - N/A   Clear
8:53 PM 37.9 °F 31.5 °F 24.1 °F 57% 30.00 in 10.0 mi SW 9.2 mph - N/A   Clear
9:53 PM 37.9 °F 30.5 °F 24.1 °F 57% 29.99 in 10.0 mi SSW 11.5 mph - N/A   Clear
10:53 PM 37.9 °F 32.1 °F 27.0 °F 65% 29.97 in 10.0 mi SW 8.1 mph - N/A   Clear
11:53 PM 39.0 °F 30.3 °F 28.9 °F 67% 29.98 in 10.0 mi SW 16.1 mph - N/A   Scattered Clouds